RH
39 37 34 31 30 29 27 26 28 27 27 29 29 30 27 21 17 16 15 14 14 13 13 12 12 12 12 12 14 16 13 12 13 13 13 13 13 13 13 13 13 12
40 40 40 38 37 36 33 31 30 29 29 31 34 36 34 27 22 21 18 17 15 15 15 14 14 13 14 14 13 14 14 13 14 13 13 13 13 13 12 12 12 11
43 44 45 46 45 43 42 39 36 34 34 36 39 41 39 32 30 29 25 23 20 18 17 16 16 15 15 15 15 15 15 15 15 15 14 15 14 14 13 12 13 11
44 47 51 55 54 52 52 50 47 43 40 41 43 44 41 35 34 35 32 30 28 25 24 21 20 20 18 17 17 16 16 16 16 16 16 16 15 15 15 14 13 13
45 49 56 61 61 61 61 58 56 53 49 46 45 46 44 38 36 36 36 36 34 33 32 31 30 29 28 26 24 22 20 18 17 17 17 16 16 16 16 16 16 15
50 54 62 66 64 64 66 64 61 58 56 53 49 49 48 43 40 39 38 38 38 37 36 36 37 37 36 35 34 32 30 29 26 23 21 20 17 16 16 16 17 17
56 57 63 66 66 66 67 65 62 60 59 56 53 53 51 46 44 44 43 41 40 40 38 37 39 39 40 40 40 39 38 38 37 35 35 32 27 23 21 19 17 18
60 59 63 63 64 69 70 67 65 63 62 59 54 53 51 46 44 45 46 46 45 43 41 40 39 39 39 40 41 41 39 39 39 39 43 43 39 35 33 29 24 22
62 63 68 66 62 63 68 70 70 67 65 62 59 56 53 50 49 48 48 49 49 48 46 44 42 41 39 39 41 43 43 42 41 39 41 43 43 43 44 41 35 31
70 69 73 75 69 64 65 69 71 69 67 65 63 62 58 56 56 55 53 53 53 52 50 49 47 45 41 39 40 41 42 45 46 45 43 44 45 45 46 45 42 39
75 76 77 77 75 73 71 71 71 71 71 71 70 68 65 64 64 61 58 56 55 52 50 49 49 49 48 45 43 43 43 46 47 48 48 49 51 50 48 46 44 43
75 80 82 79 80 83 80 75 73 73 75 77 78 75 71 68 67 66 64 60 56 53 51 47 46 49 50 48 47 45 45 47 48 48 49 50 51 51 50 48 46 45
70 75 76 74 76 78 75 72 74 76 78 79 80 78 74 68 65 67 69 65 60 56 53 49 47 46 47 48 49 50 49 48 49 50 49 49 47 48 48 47 45 44
63 66 69 69 68 67 67 69 74 79 80 79 78 78 76 72 67 66 68 68 63 59 56 54 51 48 48 50 54 58 57 55 54 53 53 54 50 47 47 47 44 42
61 62 65 67 66 65 65 66 70 76 78 78 78 78 77 75 70 68 69 68 64 61 59 57 56 52 50 51 55 60 64 65 64 59 57 59 58 52 50 49 46 42
51 51 53 56 60 64 65 65 67 70 73 75 76 76 76 76 73 69 68 66 65 63 62 61 59 55 51 52 56 61 64 64 63 60 57 59 60 57 53 50 47 43
43 43 43 45 50 55 59 62 64 66 70 72 70 69 71 72 72 70 69 68 68 66 65 64 62 59 56 54 56 61 64 62 60 58 60 62 60 56 53 48 44 41
44 43 42 41 42 44 47 52 56 58 60 62 62 63 63 63 65 68 70 70 70 69 69 67 63 62 61 59 59 61 62 63 61 58 62 64 58 51 49 46 42 40
45 45 45 45 46 49 50 52 54 54 54 56 57 59 58 57 57 60 61 62 64 66 67 65 63 63 63 62 64 61 57 57 56 53 55 56 50 47 46 43 38 36
43 43 43 46 48 50 50 51 53 53 54 55 54 53 53 54 53 53 53 53 53 55 56 55 55 56 56 57 58 56 55 55 53 48 47 48 47 46 44 39 35 33
39 39 37 38 39 39 39 41 44 44 45 45 44 44 45 46 48 49 50 50 50 51 51 49 47 48 49 49 48 48 50 53 53 50 48 48 47 44 39 35 33 31
34 33 32 31 30 30 30 32 33 33 35 37 38 38 38 38 40 41 43 46 48 49 48 46 44 46 45 43 42 43 44 45 48 51 51 51 49 44 39 38 37 35
33 32 31 30 30 29 29 30 30 30 33 35 35 35 35 35 36 37 40 44 46 48 48 45 45 47 44 40 40 41 41 43 46 50 53 52 49 46 46 47 45 43
34 32 31 30 30 30 30 31 31 31 33 34 34 35 35 35 37 39 42 45 48 51 50 48 48 48 44 40 40 40 42 47 50 51 52 51 48 49 54 55 50 47
36 35 34 33 33 32 32 32 32 32 34 35 35 35 35 36 37 39 43 46 48 49 50 49 48 47 44 43 43 42 45 49 50 51 53 52 51 55 58 56 52 49
39 38 39 39 39 38 37 36 35 34 35 36 36 35 35 36 38 40 45 50 50 49 49 49 47 45 46 47 45 44 46 47 47 51 55 56 57 59 57 52 51 51